Location: Passau
(48.5830°N, 13.4830°E)
Time: 19:30:56
(UTC+02:00)

Vanguard 3 - Pass Details

Date: 27 May 2024
Orbit: 509 x 3231 km, 33.3° (Epoch: 15 June)

Event Time Altitude Azimuth Distance (km) Brightness Sun altitude
Rises 19:12:58 0° 231° (SW) 3,622 11.0 14.4°
Reaches altitude 10° 19:15:29 10° 219° (SW) 2,963 10.4 14.0°
Maximum altitude 19:21:49 29° 162° (SSE) 2,497 9.4 13.0°
Drops below altitude 10° 19:31:41 10° 109° (ESE) 4,739 10.5 11.5°
Sets 19:36:59 0° 101° (E) 6,214 11.0 10.6°
